Date,TemperatureHighF,TemperatureAvgF,TemperatureLowF,DewpointHighF,DewpointAvgF,DewpointLowF,HumidityHigh,HumidityAvg,HumidityLow,PressureMaxIn,PressureMinIn,WindSpeedMaxMPH,WindSpeedAvgMPH,GustSpeedMaxMPH,PrecipitationSumIn
2013-1-7,33,31,30,23,22,22,73,71,65,30.33,30.21,13,7,20,0.01
2013-1-8,36,31,27,26,21,19,84,67,55,30.31,30.19,13,6,18,0.03
2013-1-9,36,36,36,21,21,21,56,56,56,30.30,30.30,6,6,6,0.00
2013-1-10,39,35,31,28,27,25,85,71,58,30.60,30.53,5,1,7,0.00
2013-1-15,31,28,27,21,20,19,77,73,63,30.34,30.17,5,1,25,0.00
2013-1-16,37,33,29,29,26,24,81,76,71,29.97,29.81,14,5,22,0.00
2013-1-17,28,24,18,20,17,13,83,75,68,30.16,30.09,5,2,25,0.00
2013-1-18,26,22,18,14,11,7,76,62,55,30.46,30.31,16,8,21,0.00
2013-1-21,18,18,18,14,13,13,82,82,81,30.00,30.00,7,1,48,0.00
2013-1-22,10,8,8,1,-1,-2,69,65,59,30.16,30.12,16,12,23,0.00
2013-1-24,14,14,14,6,6,6,71,71,71,30.52,30.52,0,0,2,0.00
2013-1-25,14,14,14,6,6,6,71,71,71,30.52,30.52,0,0,2,0.00
2013-1-31,27,27,27,16,16,15,61,61,61,29.46,29.46,23,23,38,0.13
2013-5-6,75,66,51,44,35,22,75,35,16,30.03,29.96,6,2,9,0.00
2013-5-7,80,65,47,52,45,32,88,54,21,30.07,29.93,8,1,12,0.00
2013-5-8,70,62,53,58,51,45,90,70,53,29.98,29.89,5,0,8,0.07
2013-5-9,66,56,54,59,53,51,92,90,74,29.93,29.85,10,3,12,0.11
2013-5-10,73,59,48,61,53,44,91,80,56,29.93,29.69,8,2,14,0.12
2013-5-11,59,47,44,56,44,41,91,89,83,29.79,29.66,14,7,22,0.32
2013-5-12,50,42,38,44,34,28,86,74,61,29.98,29.70,24,11,34,0.19
2013-5-13,45,40,36,33,30,27,80,67,57,30.16,29.98,14,8,21,0.03
2013-5-14,56,46,34,41,31,23,82,57,30,30.16,29.89,8,2,12,0.00
2013-5-15,79,62,51,56,46,36,79,56,42,29.89,29.54,29,6,41,0.01
2013-5-16,73,61,48,50,42,28,89,54,26,29.99,29.70,15,5,22,0.00
2013-5-17,66,53,38,43,39,35,89,61,35,30.18,29.99,6,2,9,0.00
2013-5-18,74,63,52,52,42,31,72,48,34,30.18,30.06,4,1,7,0.00
2013-5-19,80,69,59,63,56,51,78,64,46,30.08,29.92,7,3,12,0.00
2013-5-20,84,72,63,67,61,56,87,68,49,29.98,29.80,7,2,12,0.00
2013-5-21,86,72,62,68,62,55,91,72,44,29.90,29.71,12,3,17,0.22
2013-5-22,87,74,64,67,61,55,91,68,34,29.75,29.60,14,4,21,0.03
2013-5-23,70,62,44,61,56,41,89,80,67,29.88,29.65,13,5,21,0.10
2013-5-24,50,42,38,41,36,33,89,79,56,30.24,29.89,6,2,10,0.10
2013-5-25,44,42,40,34,33,32,77,70,64,30.24,30.22,3,0,6,0.07
2013-5-26,61,55,43,40,35,29,86,50,31,30.25,30.20,12,5,17,0.01
2013-5-27,68,53,36,44,37,30,90,61,27,30.27,30.10,7,1,9,0.00
2013-5-28,66,58,49,63,53,39,91,83,53,30.14,29.88,10,1,14,0.30
2013-5-29,77,70,62,64,60,58,91,72,56,29.98,29.86,17,6,24,0.05
2013-5-30,83,74,65,68,63,58,83,68,51,30.08,29.98,9,3,13,0.02
2013-5-31,87,76,67,66,61,58,80,61,40,30.02,29.87,12,4,18,0.02
2013-6-1,85,73,66,66,63,60,91,72,50,29.91,29.71,16,4,22,0.02
2013-6-2,71,66,57,64,60,51,91,80,63,29.86,29.65,21,7,29,0.02
2013-6-3,58,53,48,51,44,41,84,74,57,30.03,29.86,11,4,15,0.02
2013-6-4,65,54,42,46,41,32,90,65,31,30.15,30.03,7,1,12,0.02
2013-6-5,70,58,45,49,44,40,90,64,39,30.18,29.99,7,2,10,0.00
2013-6-6,60,58,52,57,52,44,91,82,57,29.99,29.77,4,1,5,0.01
2013-6-7,59,57,55,56,54,53,92,90,84,29.83,29.78,3,0,5,0.02
2013-6-8,62,58,53,56,54,49,92,87,76,30.08,29.81,9,3,12,0.01
2013-6-9,75,62,48,58,51,45,91,69,40,30.17,30.03,5,1,8,0.02
2013-6-10,72,68,65,65,61,53,89,76,62,30.03,29.66,11,1,16,0.01
2013-6-11,65,63,60,61,59,57,91,87,82,29.83,29.62,12,6,16,0.01
2013-6-12,75,66,56,61,56,51,92,72,48,29.89,29.72,5,1,9,0.02
2013-6-13,65,61,55,63,57,52,91,87,78,29.76,29.41,7,2,16,0.01
2013-6-14,69,60,53,60,55,51,92,84,68,29.98,29.76,9,2,14,0.01
2013-6-15,70,60,49,57,51,39,92,74,35,30.06,29.93,12,3,15,0.01
2013-6-16,72,65,60,64,58,51,88,77,66,29.93,29.69,19,6,27,0.01
2013-6-17,77,68,59,59,56,50,89,66,42,29.88,29.79,12,5,18,0.02
2013-6-18,69,62,50,56,52,42,91,72,42,29.99,29.83,8,2,12,0.00
2013-6-19,69,57,46,50,44,37,91,64,34,30.16,30.00,5,1,9,0.01
2013-6-20,77,61,44,53,45,26,89,61,18,30.21,30.16,7,1,10,0.01
2013-6-21,80,65,48,57,50,44,89,62,31,30.24,30.12,6,1,10,0.00
2013-6-22,88,75,59,66,61,53,84,63,42,30.13,29.96,11,4,16,0.01
2013-6-23,85,77,67,68,64,59,85,65,46,30.02,29.95,10,4,15,0.00
2013-6-24,83,77,69,65,63,60,80,63,50,30.02,29.91,13,5,20,0.01
2013-6-25,77,72,69,67,64,62,83,75,65,29.92,29.77,13,5,25,0.00
2013-6-26,78,71,67,67,64,61,89,78,59,29.82,29.75,12,4,17,0.01
2013-6-27,77,70,64,69,65,61,90,86,74,29.76,29.60,5,0,7,0.00
2013-6-28,71,66,63,66,62,61,92,89,80,29.61,29.44,7,1,12,0.01
2013-6-29,74,66,62,64,61,59,91,83,63,29.67,29.44,7,1,9,0.00
2013-6-30,78,68,58,64,60,55,92,79,58,29.87,29.66,6,1,8,0.00
2013-7-1,68,64,60,61,60,57,90,85,75,30.01,29.86,6,2,8,0.01
2013-7-2,76,67,59,68,62,56,90,83,69,30.04,29.96,4,2,7,0.00
2013-7-3,84,73,62,73,67,60,92,81,62,30.10,30.03,5,1,8,0.01
2013-7-4,82,72,68,71,67,64,91,85,64,30.14,30.07,8,1,13,0.00
2013-7-5,79,71,67,72,67,64,92,86,69,30.09,30.03,11,2,12,0.00
2013-7-6,81,73,65,72,67,62,92,82,66,30.11,29.99,5,1,8,0.00
2013-7-7,72,71,71,69,68,68,91,91,89,30.01,29.98,4,0,9,0.00
2013-8-8,81,74,71,73,69,68,90,83,71,29.88,29.86,3,0,7,0.00
2013-8-9,74,68,61,68,62,55,91,83,67,29.93,29.81,7,2,11,0.00
2013-8-10,72,65,58,58,56,49,89,73,50,30.07,29.93,8,2,14,0.01
2013-8-11,75,62,50,58,53,47,91,74,41,30.12,30.01,5,1,8,0.00
2013-8-12,75,66,56,64,59,53,90,79,57,30.03,29.82,7,1,12,0.00
2013-8-13,68,63,55,64,56,44,91,78,60,29.89,29.73,11,3,17,0.00
2013-8-14,69,59,53,53,50,46,84,72,48,30.08,29.87,8,3,12,0.00
2013-8-15,71,60,47,57,50,44,91,72,44,30.12,30.07,11,3,17,0.01
2013-8-16,76,62,49,57,51,46,91,71,38,30.18,30.10,7,1,9,0.00
2013-8-17,54,52,50,50,49,47,90,90,89,30.22,30.18,0,0,0,0.00
2013-8-19,63,62,60,59,58,56,89,88,85,30.04,30.03,2,0,3,0.00
2013-8-20,83,68,54,63,57,51,91,72,44,30.11,30.04,9,2,16,0.00
2013-8-21,85,70,57,64,59,54,91,70,39,30.14,30.00,8,2,13,0.00
2013-8-22,80,72,62,68,64,59,91,77,59,30.01,29.89,15,4,20,0.00
2013-8-23,78,65,53,63,54,48,92,69,40,30.17,29.97,5,1,8,0.00
2013-8-24,79,63,47,55,49,43,91,65,31,30.32,30.17,5,1,7,0.00
2013-8-25,82,68,52,56,52,46,89,61,31,30.30,30.12,11,3,16,0.00
2013-8-26,80,71,67,65,61,56,90,72,56,30.13,29.91,16,5,22,0.06
2013-8-27,82,72,66,73,68,64,91,86,71,29.92,29.83,8,2,12,0.01
2013-8-28,81,73,67,71,67,64,92,83,65,29.91,29.80,4,1,7,0.01
2013-8-29,85,72,60,70,64,58,92,80,52,30.01,29.91,4,0,7,0.00
2013-8-30,84,71,60,68,64,58,92,78,54,29.97,29.71,8,2,12,0.00
2013-8-31,81,73,68,70,67,64,90,82,60,29.80,29.68,8,2,12,0.01
2013-9-1,83,72,64,71,66,62,92,83,58,29.78,29.71,6,1,12,0.00
2013-9-2,78,70,63,71,64,53,91,82,64,29.78,29.67,13,4,18,0.00
2013-9-3,65,62,56,58,55,51,87,80,71,29.95,29.76,12,4,16,0.01
2013-9-4,74,65,53,61,56,50,90,74,50,30.00,29.94,16,6,23,0.00
2013-9-5,66,58,44,61,49,34,92,73,34,30.21,29.95,7,1,12,0.00
2013-9-6,68,53,39,50,42,36,91,70,33,30.28,30.09,7,1,12,0.00
2013-9-7,66,60,51,60,52,44,90,76,54,30.09,29.86,6,2,10,0.00
2013-9-8,68,62,49,63,53,44,92,74,48,30.08,29.84,7,2,10,0.00
2013-9-9,74,60,44,62,52,40,90,76,57,30.10,29.94,9,2,13,0.00
2013-9-10,87,77,67,74,68,61,88,75,58,29.98,29.90,11,6,18,0.01
2013-9-11,88,80,71,72,69,65,83,71,52,30.00,29.86,11,4,17,0.00
2013-9-12,71,67,60,67,62,54,90,85,74,29.94,29.71,13,3,19,0.00
2013-9-13,61,54,48,56,48,43,89,81,70,30.02,29.76,5,1,7,0.00
2013-9-14,59,51,47,45,43,37,89,74,46,30.12,30.01,8,1,12,0.00
2013-9-15,50,49,48,40,40,38,75,70,68,30.11,30.09,3,1,5,0.00
2013-9-30,62,61,61,58,58,58,90,90,90,29.96,29.95,1,0,3,0.00
2013-10-1,72,64,56,60,57,53,91,80,60,30.00,29.91,12,3,16,0.00
2013-10-2,70,64,53,62,57,49,90,80,64,30.07,29.91,12,4,16,0.00
2013-10-3,70,63,45,59,53,43,91,72,52,30.10,29.98,3,0,4,0.00
2013-10-4,73,67,61,66,63,58,91,87,77,30.02,29.96,11,3,14,0.00
2013-10-5,73,64,60,66,61,57,92,90,77,30.03,29.92,4,0,7,0.00
2013-10-6,80,72,63,69,64,59,92,79,60,29.94,29.64,11,2,15,0.01
2013-10-7,74,57,47,62,50,43,90,80,59,30.05,29.62,18,6,26,0.00
2013-10-8,62,51,42,49,44,40,92,79,50,30.32,30.05,3,0,5,0.00
2013-10-9,67,54,40,48,43,38,90,70,43,30.37,30.24,4,0,6,0.00
2013-10-10,68,53,39,46,40,34,90,64,30,30.26,30.09,4,1,5,0.00
2013-10-11,71,54,44,49,42,36,88,68,28,30.13,30.07,5,1,7,0.00
2013-10-12,77,59,42,58,44,37,91,64,27,30.16,30.06,4,0,8,0.00
2013-10-13,62,60,58,42,39,36,56,45,39,30.15,30.11,5,1,7,0.00
2013-11-8,42,39,37,31,28,21,75,65,48,30.23,30.00,12,4,18,0.00
2013-11-9,51,43,37,42,29,25,75,57,40,30.23,29.81,12,5,25,0.01
2013-11-10,50,44,40,42,32,28,74,64,58,30.19,29.79,21,10,29,0.00
2013-11-11,44,38,28,35,30,24,88,74,53,30.19,29.94,16,4,23,0.01
2013-11-12,33,28,25,25,21,18,88,76,59,30.43,30.14,7,2,12,0.96
2013-11-13,36,31,24,26,21,16,79,67,52,30.44,30.16,17,6,22,0.00
2013-11-14,49,40,32,21,17,11,57,41,22,30.17,30.03,14,8,20,0.38
2013-11-15,53,44,39,32,22,16,66,41,26,30.12,30.03,11,5,18,0.12
2013-11-16,46,45,44,28,26,24,51,46,42,30.15,30.12,7,4,12,0.00
2013-11-19,28,26,25,22,21,20,82,79,76,30.45,30.38,2,0,4,0.00
2013-11-20,46,33,20,24,14,6,87,52,21,30.55,30.38,7,1,15,0.10
2013-11-21,43,39,36,36,25,10,83,59,33,30.40,30.23,8,3,16,0.11
2013-11-22,47,42,32,44,38,25,91,86,73,30.23,30.00,15,4,20,0.17
2013-11-23,34,28,19,25,18,6,84,67,48,30.26,30.07,20,6,28,0.01
2013-11-24,25,20,16,12,9,6,71,62,48,30.47,30.26,12,4,18,0.01
2013-11-25,33,27,22,24,13,7,80,57,35,30.42,30.13,15,7,21,0.00
2013-11-26,35,32,29,29,26,21,89,76,64,30.15,29.81,10,3,18,0.00
2013-11-27,32,29,23,29,23,14,90,80,65,29.99,29.70,13,2,20,0.00
2013-11-28,27,23,17,21,17,12,87,77,63,30.42,29.99,9,2,15,0.00
2013-11-29,28,22,12,20,16,8,87,78,58,30.73,30.42,3,0,6,0.21
2013-11-30,36,28,19,23,16,8,74,62,49,30.70,30.20,9,3,16,0.01
2013-12-1,40,36,32,28,26,22,71,66,57,30.21,29.95,9,3,14,0.16
2013-12-2,37,34,27,32,29,24,87,79,70,29.95,29.86,5,1,7,0.03
2013-12-3,39,30,21,28,24,18,89,79,61,29.99,29.92,3,0,5,0.01
2013-12-4,54,44,32,40,36,27,90,74,57,30.00,29.82,6,1,12,0.02
2013-12-5,62,50,37,52,42,30,82,74,68,30.04,29.73,18,9,26,0.02
2013-12-6,36,32,28,30,27,24,89,82,75,30.27,30.03,10,2,16,0.08
2013-12-7,28,26,22,24,18,12,83,71,64,30.59,30.27,10,4,17,0.00
2013-12-8,28,25,21,21,16,12,80,69,55,30.59,30.15,6,1,9,0.00
2013-12-9,37,33,28,32,27,21,87,78,68,30.15,29.88,20,8,30,0.13
2013-12-10,31,25,20,22,17,9,85,71,52,30.10,29.93,20,9,31,0.00
2013-12-11,25,21,16,19,16,10,87,81,64,30.34,30.10,18,8,26,0.00
2013-12-12,22,17,14,16,11,7,85,78,70,30.36,30.11,20,9,30,0.00
2013-12-13,25,20,15,21,16,10,87,82,74,30.39,30.09,19,7,28,0.00
2013-12-14,22,18,13,19,14,9,87,84,81,30.40,29.72,6,2,8,0.00
2013-12-15,27,22,19,24,18,12,88,85,70,29.92,29.64,19,7,27,0.00
2013-12-16,22,18,10,14,10,5,84,71,63,30.18,29.92,17,6,24,0.00
2013-12-17,27,22,8,24,17,4,87,81,73,30.14,29.92,13,4,20,0.00
2013-12-18,29,27,25,25,23,20,89,84,73,30.07,29.95,13,6,21,0.00
2013-12-19,42,34,26,32,26,19,88,71,58,30.04,29.91,17,6,25,0.35
2013-12-20,47,42,34,44,38,31,89,86,71,29.98,29.76,12,5,18,0.35
2013-12-21,51,44,34,48,41,31,91,90,88,29.83,29.69,11,3,18,0.73
2013-12-22,54,38,32,51,34,29,92,88,80,29.98,29.51,16,5,23,0.38
2013-12-23,38,33,26,34,27,19,88,78,67,30.28,29.95,20,6,29,0.02
2013-12-24,26,20,6,21,15,0,87,79,65,30.52,30.20,5,1,10,0.00
2013-12-25,25,13,-3,16,6,-8,85,72,61,30.54,30.22,9,1,13,0.00
2013-12-26,30,28,25,26,21,16,87,77,67,30.30,30.08,17,8,22,0.00
2013-12-27,35,29,25,28,24,18,87,79,70,30.30,30.11,12,5,20,0.00
2013-12-28,44,40,32,32,28,26,83,65,53,30.12,29.95,20,9,30,0.10
2013-12-29,43,40,28,36,29,22,86,68,46,29.95,29.63,12,6,20,0.15
2013-12-30,28,20,16,22,13,9,83,73,62,30.22,29.82,14,3,18,0.00
2013-12-31,21,19,17,17,12,9,86,74,65,30.28,29.99,23,8,33,0.01
2014-1-1,18,16,14,14,9,4,85,73,58,30.42,30.27,8,2,12,0.00
2014-1-2,14,10,4,10,6,-1,83,82,80,30.27,29.97,10,5,16,0.00